sat.trackr.live / text

‹ back to catalog

STARLINK-32795

NORAD 63042 · 2025-034P

PAYLOAD ACTIVE UNKNOWN

§ Identity

Operator
Country
US
Launch date
2025-02-18
Launch site
AFETR
Launch vehicle
Mass (kg)
RCS (m²)

Purposes: comms

External: N2YO · Heavens-Above · Gunter

§ Orbital elements

Epoch: 2026-09-21T22:00:03.000096Z

Period
93.85 min
Inclination
53.1580°
Eccentricity
0.0001208
Mean motion
15.34367830 rev/d
Perigee alt
462.0 km
Apogee alt
463.6 km
Semi-major
6,840.9 km
B*
1.4618e-3
RAAN
62.8552°
Arg perigee
79.9643°
Mean anomaly
286.9641°
Rev number
588

§ Raw data

STARLINK-327951 63042U 25034P   26264.91670139  .00049288  00000+0  14618-2 0  99972 63042  53.1580  62.8552 0001208  79.9643 286.9641 15.34367830  5883

JSON: /api/v1/satellites/63042 · /tle

For live sub-satellite position, see the globe view (requires WebGL).

§ Visibility from observer

Set your observer location to see the next 7 days of passes ≥ 10°. The values pass through the URL so the page stays shareable.

No JS? Fill the form by hand. The geolocation button needs JavaScript.